Regional Weather Roundup
Issued by NWS

Home | Current Version | Previous Version | Text Only | Print | Product List | Glossary On
Versions: 1 2 3 4 5 6 7 8 9 10 11 12 13 14 15 16 17 18 19 20 21 22 23 24 25 26 27 28 29 30 31 32 33 34 35 36 37 38 39 40 41 42 43 44 45 46 47 48 49 50
000
ASUS43 KLMK 060402
RWRKY
KENTUCKY REGIONAL WEATHER ROUNDUP
NATIONAL WEATHER SERVICE LOUISVILLE KY
1200 AM EDT MON JUL 06 2015

NOTE "FAIR" INDICATES FEW OR NO CLOUDS BELOW 12,000 FEET
WITH NO SIGNIFICANT WEATHER AND/OR OBSTRUCTIONS TO VISIBILITY.

KYZ001>023-026-027-061>063-070>075-060500-
WESTERN AND SOUTH CENTRAL KENTUCKY

CITY           SKY/WX    TMP DP  RH WIND       PRES   REMARKS
PADUCAH        CLEAR     71  68  90 CALM      30.05S FOG
HENDERSON      CLEAR     72  68  88 CALM      30.05F
OWENSBORO      CLEAR     75  70  85 SE5       30.07F
HOPKINSVILLE   CLEAR     73  68  83 S1        30.07S
BOWLING GREEN  MOCLDY    72  68  87 CALM      30.09R FOG
GLASGOW        NOT AVBL
$$

KYZ024-025-028>034-038-045-046-053-060500-
NORTH CENTRAL KENTUCKY

CITY           SKY/WX    TMP DP  RH WIND       PRES   REMARKS
LOUISVILLE/SDF CLEAR     72  65  78 SE5       30.10R
LOUISVILLE/LOU CLEAR     71  65  81 CALM      30.11R
FORT KNOX      LGT RAIN  66  65  94 CALM      30.10R FOG
$$

KYZ035>037-039>044-047>052-055>060-089>105-060500-
NORTHEAST KENTUCKY

CITY           SKY/WX    TMP DP  RH WIND       PRES   REMARKS
LEXINGTON      PTCLDY    66  63  90 CALM      30.11F
COVINGTON      MOCLDY    65  62  90 CALM      30.10R
FRANKFORT      PTCLDY    65  63  93 CALM      30.10S
$$

KYZ054-064>069-076>088-106>120-060500-
SOUTHEAST KENTUCKY

CITY           SKY/WX    TMP DP  RH WIND       PRES   REMARKS
JACKSON        LGT RAIN  68  67  96 NW6       30.09F FOG
LONDON         PTCLDY    67  63  87 CALM      30.11F FOG
SOMERSET       NOT AVBL
MIDDLESBORO    NOT AVBL
MONTICELLO     FOG       67  67 100 CALM      30.14F VSB 3/4
$$



USA.gov is the U.S. government's official web portal to all federal, state and local government web resources and services.